Tracking 19164 objects as of 21-May-2018
HD Live streaming from Space Station
objects crossing your sky now

ERS 1

Track ERS 1 now!
10-day predictions
ERS 1 is classified as:


NORAD ID: 21574
Int'l Code: 1991-050A
Perigee: 749.3 km
Apogee: 797.5 km
Inclination: 98.5 °
Period: 100.2 minutes
Semi major axis: 7144 km
RCS: 11.0086 m2 (large)
Launch date: July 17, 1991
Source: European Space Agency (ESA)
Launch site: FRENCH GUIANA (FRGUI)
aabbcc
Your satellite tracking list
Your tracking list is empty




NASA's NSSDC Master Catalog

Two Line Element Set (TLE):
1 21574U 91050A   18140.89269709 +.00000059 +00000-0 +34078-4 0  9998
2 21574 098.5024 088.4660 0033726 028.9358 331.3689 14.37647810406124
Source of the keplerian elements: AFSPC